Weather in Gruziny

Russia / Tver Oblast     56°56′10″N   35°02′42″E
temp.,
°C
wind,
m/s
gust,
m/s
humid.,
%
clouds,
%
prec.,
mm/h
press.,
hPa
HPBL,
m
15 june, tue
tue1500:00+14n118899 0.0 101611
03:00+12nne119222 0.0 101610
06:00+15sw118179 0.0 101558
09:00+20sw24635 0.0 1014785
12:00+23w454991 0.0 10121951
15:00+24w354778 0.0 10112014
18:00+23w355640 0.0 1010960
21:00+17w3678100 0.0 1010114
16 june, wed
wed1600:00+14nw3578100 0.0 101192
03:00+13nw2794100 0.0 1012163
06:00+15nw39845 0.0 1013401
09:00+18n46550 0.0 10151038
12:00+21nnw45371 0.0 10161918
15:00+22nnw453216 0.0 10162098
18:00+21n35409 0.0 10171598
21:00+14n2265100 0.0 101927
17 june, thu
thu1700:00+11nnw226410 0.0 102112
03:00+10nw22700 0.0 102313
06:00+13nw12680 0.0 102463
09:00+19w22460 0.0 1025545
12:00+23w23350 0.0 10251933
15:00+24wnw2334100 0.0 10252140
18:00+24wnw234599 0.0 10241485
21:00+18w226445 0.0 102511
18 june, fri
fri1800:00+15w1174100 0.0 102611
03:00+13wsw11801 0.0 102710
06:00+16wsw12751 0.0 102784
09:00+22sw24525 0.0 1027548
12:00+25sw343822 0.0 10261661
15:00+27sw443770 0.0 10251920
18:00+26ssw35485 0.0 10251215
21:00+19ssw310745 0.0 1025230
19 june, sat
sat1900:00+16sw311830 0.0 1026211
03:00+15sw38850 0.0 1026146
06:00+16sw39800 0.0 1027238
09:00+22wsw35565 0.0 1026713
12:00+26wsw35405 0.0 10251693
15:00+28wsw45365 0.0 10241948
18:00+27wsw24465 0.0 10231558
21:00+20ssw35770 0.0 102476